Charleston, WV

12:59 AM EDT on July 30, 2016 (GMT -0400)
Yeager Airport

Weather History for KCRW - May, 2013

Change the Weather History Date:

Thursday, May 23, 2013

  Actual Average Record
Temperature  
Mean Temperature 69 °F 65 °F  
Max Temperature 78 °F 76 °F 92 °F (1939)
Min Temperature 59 °F 55 °F 34 °F (1963)
Degree Days  
Heating Degree Days 0 3  
Month to date heating degree days 64 100  
Since 1 July heating degree days 4480 4448  
Cooling Degree Days 4 3  
Month to date cooling degree days 71 46  
Year to date cooling degree days 110 78  
Growing Degree Days 20 (Base 50)    
Moisture  
Dew Point 60 °F    
Average Humidity 73    
Maximum Humidity 87    
Minimum Humidity 58    
Precipitation  
Precipitation 0.30 in 0.16 in 1.52 in (1913)
Month to date precipitation 4.54 3.49  
Year to date precipitation 15.41 16.83  
Snow  
Snow 0.00 in - - ()
Month to date snowfall 0.0  
Since 1 September snowfall 25.3  
Snow Depth 0.00 in    
Sea Level Pressure  
Sea Level Pressure 29.87 in    
Wind  
Wind Speed 6 mph (SW)    
Max Wind Speed 20 mph    
Max Gust Speed 24 mph    
Visibility 9 miles    
Events Rain , Thunderstorm    
T = Trace of Precipitation, MM = Missing Value Source: NWS Daily Summary

Daily Weather History Graph

Daily Weather History Graph

Search for Another Location

Airport or City:

Trip Planner

Search our weather history database for the weather conditions in past years. The results will help you decide how hot, cold, wet, or windy it might be!

Date:

Astronomy

May. 23, 2013 Rise Set
Actual Time 6:08 AM EDT 8:37 PM EDT
Civil Twilight 5:38 AM EDT 9:08 PM EDT
Nautical Twilight 5:00 AM EDT 9:46 PM EDT
Astronomical Twilight 4:19 AM EDT 10:28 PM EDT
Moon 7:09 PM EDT (5/23) 4:51 AM EDT (5/23)
Length of Visible Light 15h 29m
Length of Day
14h 28m
Waxing Gibbous, 97% of the Moon is Illuminated
May 23
Waxing Gibbous
May 25
Full
May 31
Last Quarter
Jun 8
New
Jun 16
First Quarter

Hourly Weather History & Observations

Time (EDT) Temp. Dew Point Humidity Pressure Visibility Wind Dir Wind Speed Gust Speed Precip Events Conditions
12:26 AM 64.4 °F 60.8 °F 88% 29.90 in 10.0 mi Calm Calm - 0.03 in Rain Light Rain
12:42 AM 64.4 °F 62.6 °F 94% 29.89 in 1.8 mi East 3.5 mph - 0.04 in Rain Light Rain
12:44 AM 64.4 °F 62.6 °F 94% 29.89 in 6.0 mi East 3.5 mph - 0.04 in Rain Light Rain
12:54 AM 64.0 °F 62.1 °F 93% 29.86 in 6.0 mi SE 3.5 mph - 0.04 in   Mostly Cloudy
1:54 AM 64.0 °F 61.0 °F 90% 29.85 in 10.0 mi Calm Calm - N/A   Overcast
2:54 AM 64.0 °F 61.0 °F 90% 29.84 in 10.0 mi Calm Calm - 0.00 in Rain Light Rain
3:54 AM 64.0 °F 62.1 °F 93% 29.83 in 6.0 mi Calm Calm - 0.00 in   Overcast
4:54 AM 64.0 °F 61.0 °F 90% 29.84 in 6.0 mi Calm Calm - N/A   Overcast
5:52 AM 64.4 °F 60.8 °F 88% 29.87 in 0.8 mi Calm Calm - N/A   Mostly Cloudy
5:54 AM 64.0 °F 61.0 °F 90% 29.85 in 10.0 mi Calm Calm - N/A   Mostly Cloudy
6:54 AM 64.0 °F 61.0 °F 90% 29.87 in 10.0 mi Calm Calm - N/A   Mostly Cloudy
7:54 AM 66.0 °F 62.1 °F 87% 29.90 in 10.0 mi SW 3.5 mph - N/A   Mostly Cloudy
8:54 AM 68.0 °F 63.0 °F 84% 29.90 in 10.0 mi SW 9.2 mph - N/A   Scattered Clouds
9:54 AM 71.1 °F 63.0 °F 75% 29.89 in 10.0 mi SW 6.9 mph - N/A   Scattered Clouds
10:54 AM 73.0 °F 61.0 °F 66% 29.88 in 10.0 mi SW 10.4 mph - N/A   Mostly Cloudy
11:54 AM 72.0 °F 59.0 °F 64% 29.88 in 10.0 mi SW 8.1 mph - N/A   Mostly Cloudy
12:54 PM 75.9 °F 59.0 °F 56% 29.86 in 10.0 mi SSW 13.8 mph 19.6 mph N/A   Mostly Cloudy
1:54 PM 75.9 °F 59.0 °F 56% 29.83 in 10.0 mi SSW 11.5 mph - N/A   Mostly Cloudy
2:54 PM 71.1 °F 57.0 °F 61% 29.83 in 8.0 mi NW 10.4 mph 17.3 mph N/A   Mostly Cloudy
2:56 PM 69.8 °F 57.2 °F 64% 29.84 in 7.0 mi NW 11.5 mph 17.3 mph 0.00 in Rain , Thunderstorm Light Thunderstorms and Rain
3:48 PM 69.8 °F 60.8 °F 73% 29.85 in 10.0 mi Calm Calm - 0.11 in   Mostly Cloudy
3:54 PM 69.1 °F 61.0 °F 75% 29.84 in 10.0 mi Calm Calm - 0.11 in   Mostly Cloudy
4:54 PM 66.0 °F 62.1 °F 87% 29.83 in 9.0 mi South 11.5 mph - 0.02 in Rain Light Rain
5:54 PM 64.9 °F 61.0 °F 87% 29.84 in 6.0 mi South 10.4 mph - 0.07 in Rain Rain
6:54 PM 69.1 °F 62.1 °F 78% 29.85 in 10.0 mi WSW 6.9 mph - 0.01 in   Scattered Clouds
7:54 PM 69.1 °F 61.0 °F 75% 29.87 in 10.0 mi West 6.9 mph - 0.00 in Rain Light Rain
8:54 PM 66.0 °F 54.0 °F 65% 29.89 in 10.0 mi West 6.9 mph - N/A   Mostly Cloudy
9:54 PM 64.9 °F 53.1 °F 65% 29.89 in 10.0 mi West 6.9 mph - N/A   Overcast
10:54 PM 64.9 °F 53.1 °F 65% 29.91 in 10.0 mi West 4.6 mph - N/A   Overcast
11:54 PM 64.0 °F 53.1 °F 67% 29.92 in 10.0 mi WNW 8.1 mph - N/A   Overcast